Location: Borderline Observatory
(42.7345°N, 72.8696°W)
Time: 01:17:12
(UTC-04:00)

Daily predictions for brighter satellites

Satellite Brightness Start Highest point End
(mag) Time Altitude Azimuth Time Altitude Azimuth Time Altitude Azimuth
H-2A R/B 4.4 00:12:13 23° N 00:12:13 23° N 00:13:59 10° N
Lacrosse 5 3.8 00:11:13 10° NW 00:13:24 26° NW 00:13:24 26° NW
CZ-2C R/B 4.0 00:13:05 10° N 00:16:47 34° NW 00:16:47 34° NW
CZ-4C R/B 3.4 00:26:51 38° NNW 00:26:51 38° NNW 00:31:51 10° NNE
ATLAS 5 CENTAUR R/B 3.5 00:27:39 10° NW 00:31:12 39° NW 00:31:12 39° NW
ADEOS Rocket 3.6 01:08:16 10° N 01:14:09 59° NNW 01:14:09 59° NNW
Cosmos 1943 Rocket 4.4 01:12:28 10° NW 01:13:38 15° WNW 01:13:38 15° WNW
Mayak 1.6 01:13:45 10° NNW 01:14:37 15° NNW 01:14:37 15° NNW
COSMOS 2406 4.4 01:31:26 38° NE 01:31:26 38° NE 01:34:55 10° NNE
CZ-2D R/B 4.2 01:45:30 10° NE 01:48:41 18° E 01:48:41 18° E
SL-16 R/B 3.9 01:49:33 27° E 01:51:20 32° ENE 01:56:46 10° N
Cosmos 2082 Rocket 4.1 01:53:11 20° E 01:53:11 20° E 01:56:17 10° NE
Lacrosse 4 Rocket 4.1 01:53:21 10° N 01:56:19 17° NE 01:57:22 16° ENE
Cosmos 1464 Rocket 4.3 02:02:22 63° NE 02:02:22 63° NE 02:07:41 10° N
Cosmos 1656 4.2 02:16:18 10° NNW 02:21:48 55° NE 02:21:48 55° NE
Nadezhda 4 Rocket 4.1 02:20:26 10° N 02:26:27 69° ENE 02:26:27 69° ENE
Gbstr 26 Del rocket 4.2 02:26:22 83° WSW 02:26:42 89° NW 02:33:51 10° ENE
Cosmos 2369 4.1 02:21:12 10° NNW 02:26:20 60° NE 02:26:20 60° NE
NPP 4.1 02:26:18 10° NNE 02:30:55 57° ENE 02:30:55 57° ENE
Cosmos 1833 Rocket 3.4 02:32:35 47° E 02:32:35 47° E 02:37:27 10° NE
Resurs 1-4 Rocket 2.9 02:27:27 10° NNE 02:32:02 43° E 02:32:02 43° E
Lacrosse 5 rocket 3.3 02:45:56 26° ENE 02:45:56 26° ENE 02:47:59 10° ENE
Cosmos 909 Rocket 3.9 02:46:46 10° NNW 02:53:04 89° WSW 02:53:59 68° SSE
H-2A R/B 3.7 02:50:05 10° NNE 02:52:52 41° N 02:52:52 41° N
Cosmos 332 Rocket 4.3 02:55:46 56° NNE 02:55:46 56° NNE 02:59:35 10° NNE
Meteor 1-23 Rocket 4.2 02:54:57 85° N 02:54:57 85° N 03:00:32 10° N
Cosmos 371 Rocket 3.7 02:57:27 60° NNE 02:57:27 60° NNE 03:01:27 10° NNE
Meteor 2-4 Rocket 4.3 03:01:30 44° NW 03:01:30 44° NW 03:05:52 10° N
Exosat Rocket 4.1 02:57:46 10° NNW 03:03:41 85° WSW 03:06:37 41° SSE
CBERS-1 4.2 03:04:45 10° N 03:09:22 61° NW 03:09:22 61° NW
Cosmos 1025 Rocket 3.4 03:16:11 60° NNE 03:16:11 60° NNE 03:19:44 10° N
COSMOS 2487 4.1 03:18:48 33° ENE 03:18:48 33° ENE 03:21:09 10° NNE
Cosmos 2278 4.1 03:14:23 10° NNW 03:18:44 46° WNW 03:18:44 46° WNW
Cosmos 2195 Rocket 4.3 03:14:42 10° N 03:20:54 90° E 03:22:39 50° S
Cosmos 1898 Rocket 4.5 03:16:57 10° N 03:21:59 46° ENE 03:26:59 10° SE
USA 215 4.2 03:18:46 10° ENE 03:24:43 37° SE 03:26:55 29° SSE
Cosmos 1980 Rocket 2.3 03:21:53 10° NNW 03:27:31 71° ENE 03:33:07 10° SSE
Cosmos 1570 Rocket 4.0 03:27:42 62° SSE 03:28:30 75° ESE 03:33:49 10° NNE
CZ-2D R/B 2.2 03:24:20 10° N 03:29:38 59° WNW 03:30:01 58° W
Cosmos 1697 Rocket 2.6 03:25:16 10° NNW 03:30:53 64° WSW 03:31:12 63° SW
Cosmos 1607 4.2 03:29:40 48° W 03:31:08 59° NW 03:37:33 10° NNE
Cosmos 2142 Rocket 4.4 03:29:46 51° SSW 03:31:28 86° W 03:37:39 10° N
Cosmos 1092 Rocket 4.1 03:25:58 10° NNW 03:32:00 55° W 03:32:43 52° WSW
UNKNOWN OBJECT B 3.3 03:30:55 10° NNE 03:34:43 51° E 03:34:51 51° ESE
SL-16 R/B 2.8 03:34:38 45° WSW 03:34:44 45° W 03:40:44 10° NNW
Lacrosse 4 Rocket 2.6 03:31:02 10° NW 03:33:35 33° NW 03:33:35 33° NW
Cosmos 2082 Rocket 2.3 03:35:02 53° W 03:35:48 57° WNW 03:41:23 10° NNE
Cosmos 304 Rocket 3.7 03:35:16 66° S 03:35:52 78° ESE 03:40:43 10° NNE
SL-16 R/B 4.0 03:32:24 10° N 03:37:25 31° NE 03:42:25 10° ESE
Cosmos 1867 3.5 03:32:17 10° NW 03:37:36 59° WSW 03:37:36 59° WSW
Spot 4 Rocket 3.9 03:33:44 10° N 03:38:53 72° WNW 03:39:40 61° SW
Cosmos 1340 Rocket 4.4 03:40:35 24° NW 03:40:35 24° NW 03:42:46 10° NNW
MOZ.5/SAFIR/RUBIN 5/SL-8 4.0 03:40:16 52° WNW 03:40:16 52° WNW 03:44:26 10° NNW
ARIANE 5 R/B 2.5 03:37:27 10° N 03:42:40 69° WNW 03:43:38 56° SW
Iridium 4 Rocket 4.0 03:47:03 34° WNW 03:47:03 34° WNW 03:50:23 10° NNW
Cosmos 468 Rocket 4.1 03:47:43 43° S 03:49:29 77° ESE 03:54:49 10° NNE
BREEZE-M R/B 3.5 03:51:25 39° SE 03:51:33 39° SE 03:56:17 10° ENE
BREEZE-M DEB (TANK) 4.1 03:34:38 10° WNW 03:53:59 82° NNE 03:58:21 10° ESE
Cosmos 990 Rocket 4.4 03:49:08 10° NNW 03:54:15 62° ENE 03:59:22 10° SSE
Cosmos 2322 Rocket 3.6 03:49:16 10° N 03:54:34 39° ENE 03:59:48 10° SE
Cosmos 1428 Rocket 4.3 03:48:28 10° N 03:54:40 76° W 03:58:27 25° S
USA 238 DEB 4.4 03:56:25 21° S 04:00:45 49° ESE 04:07:22 10° NE
USA 238 4.4 03:56:30 21° S 04:00:51 48° ESE 04:07:28 10° NE
ADEOS II 2.4 03:56:00 10° NNE 04:01:14 62° ESE 04:04:45 21° S
Cosmos 1726 Rocket 3.4 03:57:54 10° N 04:02:14 78° W 04:03:44 40° S
Cosmos 1842 3.8 04:01:07 31° SSE 04:02:46 58° E 04:06:41 10° NNE
Okean 1-7 Rocket 3.8 04:03:00 47° WSW 04:03:33 51° WNW 04:07:57 10° N
Cosmos 724 4.4 04:01:35 31° SSW 04:04:22 70° ESE 04:10:08 10° NE
IRS-1D 4.3 04:00:11 10° N 04:04:47 34° WNW 04:05:48 31° W
Cosmos 1356 Rocket 3.5 04:05:50 49° W 04:06:04 50° WNW 04:10:01 10° N
CZ-2D R/B 3.4 04:03:27 10° N 04:07:28 63° WNW 04:08:19 49° SW
ADEOS 3.5 04:02:27 10° N 04:07:40 71° WNW 04:09:55 34° SSW
Cosmos 1544 3.8 04:07:52 10° NNW 04:10:42 36° WNW 04:10:42 36° WNW
Resurs 1-4 Rocket 3.3 04:07:49 10° N 04:12:03 25° WNW 04:13:07 23° W
Cosmos 1833 Rocket 3.9 04:14:17 22° W 04:16:12 27° NW 04:20:58 10° N
Cosmos 2058 Rocket 2.9 04:13:41 10° NNW 04:18:06 76° W 04:21:28 17° S
Helios 1A Rocket 3.7 04:14:21 10° N 04:18:10 36° WNW 04:18:54 33° W
Cosmos 1805 3.1 04:15:02 10° N 04:18:57 87° W 04:21:47 18° S
Cosmos 1766 3.4 04:19:12 10° NNW 04:22:58 49° W 04:24:03 37° SW
Lacrosse 5 rocket 2.7 04:21:36 22° WNW 04:23:18 30° NNW 04:26:56 10° NNE
Cosmos 44 3.8 04:18:09 10° NNW 04:23:22 71° NE 04:28:44 10° SE
Cosmos 841 Rocket 3.6 04:25:09 18° S 04:29:04 75° ESE 04:34:17 10° NNE
Cosmos 1606 Rocket 4.3 04:25:39 10° NNW 04:29:27 31° W 04:30:10 29° WSW
Cosmos 1758 3.6 04:27:25 10° N 04:31:23 69° E 04:35:20 10° SSE
deb Kosmos-1763 4.1 04:31:15 25° SSW 04:33:22 84° ESE 04:37:09 10° NNE
Cosmos 2228 3.3 04:30:59 10° NNW 04:35:03 43° W 04:37:29 21° SSW
Cosmos 1626 Rocket 3.7 04:32:17 10° S 04:36:31 74° E 04:40:51 10° NNE
Cosmos 1892 Rocket 4.4 04:40:00 24° WSW 04:41:46 33° WNW 04:45:48 10° N
Cosmos 44 Rocket 3.7 04:38:13 10° NNW 04:43:22 72° NE 04:48:33 10° SE
SJ 16-02 2.4 04:41:36 10° N 04:45:53 48° ENE 04:50:09 10° SE
CZ-4B R/B 3.4 04:45:45 10° NNE 04:50:02 64° ESE 04:54:03 10° S
Meteor 1-21 4.5 04:47:14 15° SSW 04:51:47 50° WNW 04:57:16 10° N
Cosmos 540 Rocket 3.7 04:47:46 10° S 04:52:51 70° ESE 04:58:00 10° NNE
ATLAS 3B R/B 2.8 04:47:01 13° SSW 04:53:32 89° ESE 05:00:30 10° NE
NOSS 3-2 (A) 3.8 04:50:16 10° SSW 04:56:03 65° ESE 05:02:29 10° NE
Cosmos 1763 Rocket 4.0 04:53:31 17° SW 04:57:20 44° WNW 05:02:27 10° N
Timation 2 Rocket 4.0 04:52:47 15° SW 04:57:48 61° WNW 05:03:43 10° NNE
Cosmos 1733 3.3 05:00:28 10° NNW 05:04:16 56° W 05:08:03 10° S
USA 215 3.4 05:01:29 10° NE 05:07:59 68° NW 05:14:17 11° WSW
MOS 1-B 4.4 05:03:02 10° NNE 05:08:52 80° WNW 05:14:40 10° SSW
Cosmos 2360 Rocket 2.7 05:03:25 10° NNW 05:09:02 65° ENE 05:14:37 10° SE
Cosmos 1980 Rocket 3.6 05:07:29 10° WNW 05:10:51 16° W 05:14:13 10° SW
Cosmos 1238 Rocket 4.4 05:05:33 10° S 05:11:54 74° E 05:18:37 10° NNE
Okean O Rocket 2.1 05:07:56 10° NNE 05:12:17 64° ESE 05:16:35 10° S
USA 161 2.0 05:09:26 10° SSE 05:12:28 66° ENE 05:15:27 10° N
ATLAS CENTAUR R/B 3.1 05:10:53 10° NNW 05:15:02 41° NE 05:19:25 10° ESE
CENTAUR R/B 4.3 05:11:44 10° SSE 05:16:42 29° ESE 05:22:14 10° NE
Cosmos 1125 Rocket 3.6 05:11:33 10° NNW 05:16:55 86° ENE 05:22:12 10° SSE
Cosmos 1244 Rocket 4.5 05:11:07 10° N 05:17:18 87° W 05:23:28 10° S
Cosmos 1470 3.0 05:15:08 10° NNW 05:19:01 50° W 05:22:51 10° S
Cosmos 2082 Rocket 4.3 05:19:36 10° WNW 05:21:12 11° NW 05:22:48 10° NNW
SL-16 R/B 2.6 05:16:19 10° NW 05:21:38 41° WSW 05:26:53 10° S
Cosmos 1825 Rocket 3.7 05:22:03 10° S 05:26:21 80° E 05:30:41 10° N
Cosmos 2292 Rocket 4.0 05:23:49 10° N 05:27:41 53° ENE 05:30:49 10° SSE
S3M 4.3 05:26:57 10° S 05:33:02 72° E 05:39:08 10° NNE
DNEPR-1 R/B 3.7 05:30:19 10° SW 05:34:28 60° NW 05:39:04 10° NNE
Meteor 1-16 Rocket 4.2 05:29:45 10° N 05:35:29 85° W 05:40:59 10° S
Cosmos 2219 Rocket 4.2 05:32:20 10° N 05:37:25 34° NE 05:42:28 10° ESE
